Location: Cahas Mountain Overlook
(37.0833°N, 80.1000°W)
Time: 19:46:24
(UTC-04:00)

Explorer 7 - Pass Details

Date: 13 February 2026
Orbit: 430 x 541 km, 50.2° (Epoch: 13 March)

Event Time Altitude Azimuth Distance (km) Brightness Sun altitude
Rises 01:17:10 0° 285° (WNW) 2,667 - -64.4°
Reaches altitude 10° 01:20:59 10° 249° (WSW) 1,791 - -64.1°
Maximum altitude 01:22:05 11° 233° (SW) 1,733 - -64.0°
Drops below altitude 10° 01:23:12 10° 217° (SW) 1,796 - -63.9°
Sets 01:27:04 0° 181° (S) 2,690 - -63.5°
